Tracking 28902 objects as of 19-May-2024
HD Live streaming from Space Station
objects crossing your sky now

COSMOS 249 DEB

Track COSMOS 249 DEB now!
10-day predictions


NORAD ID: 3912
Int'l Code: 1968-091BQ
Perigee: 789.3 km
Apogee: 1,970.7 km
Inclination: 62.3 °
Period: 113.2 minutes
Semi major axis: 7751 km
RCS: 0.0292 m2 (small)
Launch date: October 20, 1968
Source: Commonwealth of Independent States (former USSR) (CIS)
Launch site: TYURATAM MISSILE AND SPACE COMPLEX (TTMTR)

Note: This is SATELLITE DEBRIS
Your satellite tracking list
Your tracking list is empty




NASA's NSSDC Master Catalog

Two Line Element Set (TLE):
1 03912U 68091BQ  24139.77546538  .00002021  00000-0  31116-2 0  9992
2 03912  62.2612 280.1499 0762099 270.7613  80.6195 12.72223398548610
Source of the keplerian elements: AFSPC